When you browse on this site, cookies collect data to enhance your experience and personalize the content and advertising you see.
Visit our Privacy Policy to learn more. By continuing to use the site, you agree to this use of cookies and data.

Hourly Weather Emenovo

Today, 6 July, Monday

Time Temperature Precipitation Wind Pressure Humidity
00:00 +16°C° 0 mm 2 mps 741 mmHg 95%
01:00 +16°C° 0 mm 2 mps 741 mmHg 96%
02:00 +16°C° 0 mm 2 mps 741 mmHg 96%
03:00 +17°C° 0 mm 3 mps 741 mmHg 94%
04:00 +17°C° 0 mm 3 mps 741 mmHg 92%
05:00 +18°C° 0 mm 3 mps 741 mmHg 91%
06:00 +20°C° 0 mm 3 mps 741 mmHg 84%
07:00 +21°C° 0 mm 4 mps 741 mmHg 77%
08:00 +23°C° 0 mm 4 mps 741 mmHg 70%
09:00 +25°C° 0 mm 4 mps 741 mmHg 67%
10:00 +27°C° 0 mm 4 mps 741 mmHg 63%
11:00 +28°C° 0 mm 5 mps 741 mmHg 59%
12:00 +28°C° 0.2 mm 5 mps 741 mmHg 63%
13:00 +28°C° 0.2 mm 4 mps 740 mmHg 66%
14:00 +28°C° 0.2 mm 4 mps 740 mmHg 69%
15:00 +27°C° 0.4 mm 4 mps 740 mmHg 73%
16:00 +27°C° 0.4 mm 4 mps 740 mmHg 76%
17:00 +26°C° 0.4 mm 3 mps 740 mmHg 80%
18:00 +25°C° 0.4 mm 3 mps 740 mmHg 84%
19:00 +24°C° 0.4 mm 3 mps 739 mmHg 89%
20:00 +23°C° 0.4 mm 2 mps 739 mmHg 93%
21:00 +21°C° 0 mm 2 mps 739 mmHg 94%
22:00 +20°C° 0 mm 2 mps 739 mmHg 95%
23:00 +20°C° 0 mm 3 mps 739 mmHg 96%

Tomorrow, 7 July, Tuesday

Time Temperature Precipitation Wind Pressure Humidity
00:00 +20°C° 0 mm 3 mps 739 mmHg 96%
01:00 +19°C° 0 mm 3 mps 739 mmHg 96%
02:00 +19°C° 0 mm 3 mps 739 mmHg 96%
03:00 +19°C° 0.1 mm 3 mps 739 mmHg 96%
04:00 +19°C° 0.1 mm 3 mps 739 mmHg 96%
05:00 +20°C° 0.1 mm 2 mps 739 mmHg 96%
06:00 +21°C° 0.2 mm 3 mps 739 mmHg 93%
07:00 +22°C° 0.2 mm 3 mps 739 mmHg 91%
08:00 +24°C° 0.2 mm 3 mps 739 mmHg 88%
09:00 +24°C° 0.6 mm 3 mps 739 mmHg 86%
10:00 +25°C° 0.6 mm 3 mps 739 mmHg 84%
11:00 +26°C° 0.6 mm 3 mps 739 mmHg 81%
12:00 +25°C° 1.6 mm 3 mps 739 mmHg 84%
13:00 +25°C° 1.6 mm 3 mps 739 mmHg 86%
14:00 +24°C° 1.6 mm 3 mps 739 mmHg 88%
15:00 +22°C° 0.9 mm 3 mps 739 mmHg 90%
16:00 +21°C° 0.9 mm 3 mps 739 mmHg 91%
17:00 +20°C° 0.9 mm 3 mps 739 mmHg 93%
18:00 +20°C° 0.6 mm 3 mps 739 mmHg 94%
19:00 +19°C° 0.6 mm 3 mps 739 mmHg 95%
20:00 +18°C° 0.6 mm 3 mps 738 mmHg 96%
21:00 +18°C° 1.5 mm 3 mps 738 mmHg 97%
22:00 +18°C° 1.5 mm 3 mps 738 mmHg 97%
23:00 +17°C° 1.5 mm 4 mps 738 mmHg 98%

Day after tomorrow, 8 July, Wednesday

Time Temperature Precipitation Wind Pressure Humidity
00:00 +17°C° 0.7 mm 3 mps 738 mmHg 98%
01:00 +17°C° 0.7 mm 3 mps 738 mmHg 98%
02:00 +17°C° 0.7 mm 2 mps 738 mmHg 99%
03:00 +16°C° 0.5 mm 3 mps 738 mmHg 98%
04:00 +14°C° 0.5 mm 4 mps 738 mmHg 97%
05:00 +12°C° 0.5 mm 5 mps 738 mmHg 96%
06:00 +12°C° 0.6 mm 5 mps 738 mmHg 96%
07:00 +12°C° 0.6 mm 4 mps 738 mmHg 97%
08:00 +12°C° 0.6 mm 4 mps 738 mmHg 97%
09:00 +12°C° 1.7 mm 3 mps 739 mmHg 97%
10:00 +13°C° 1.7 mm 3 mps 739 mmHg 97%
11:00 +14°C° 1.7 mm 2 mps 740 mmHg 97%
12:00 +14°C° 0.8 mm 2 mps 740 mmHg 95%
13:00 +14°C° 0.8 mm 3 mps 741 mmHg 92%
14:00 +16°C° 0.8 mm 3 mps 741 mmHg 90%
15:00 +17°C° 0 mm 2 mps 741 mmHg 83%
16:00 +17°C° 0 mm 2 mps 741 mmHg 75%
17:00 +19°C° 0 mm 1 mps 742 mmHg 68%
18:00 +18°C° 0 mm 1 mps 742 mmHg 73%
19:00 +16°C° 0 mm 1 mps 742 mmHg 77%
20:00 +15°C° 0 mm 1 mps 742 mmHg 82%
21:00 +15°C° 0 mm 1 mps 742 mmHg 84%
22:00 +14°C° 0 mm 1 mps 742 mmHg 86%
23:00 +14°C° 0 mm 1 mps 742 mmHg 88%

9 July, Thursday

Time Temperature Precipitation Wind Pressure Humidity
00:00 +13°C° 0 mm 1 mps 742 mmHg 90%
01:00 +12°C° 0 mm 1 mps 742 mmHg 92%
02:00 +12°C° 0 mm 1 mps 742 mmHg 94%
03:00 +12°C° 0 mm 1 mps 742 mmHg 93%
04:00 +13°C° 0 mm 1 mps 742 mmHg 91%
05:00 +13°C° 0 mm 1 mps 742 mmHg 89%
06:00 +15°C° 0 mm 2 mps 742 mmHg 83%
07:00 +16°C° 0 mm 2 mps 742 mmHg 77%
08:00 +17°C° 0 mm 2 mps 742 mmHg 71%
09:00 +18°C° 0.1 mm 3 mps 742 mmHg 67%
10:00 +19°C° 0.1 mm 3 mps 742 mmHg 62%
11:00 +20°C° 0.1 mm 3 mps 742 mmHg 58%
12:00 +20°C° 0.3 mm 3 mps 742 mmHg 60%
13:00 +20°C° 0.3 mm 3 mps 742 mmHg 62%
14:00 +20°C° 0.3 mm 3 mps 742 mmHg 64%
15:00 +20°C° 0.3 mm 3 mps 742 mmHg 64%
16:00 +20°C° 0.3 mm 2 mps 742 mmHg 64%
17:00 +20°C° 0.3 mm 2 mps 742 mmHg 64%
18:00 +18°C° 0.1 mm 2 mps 742 mmHg 69%
19:00 +17°C° 0.1 mm 2 mps 743 mmHg 74%
20:00 +15°C° 0.1 mm 2 mps 743 mmHg 79%
21:00 +14°C° 0 mm 2 mps 743 mmHg 79%
22:00 +13°C° 0 mm 2 mps 743 mmHg 80%
23:00 +12°C° 0 mm 2 mps 744 mmHg 81%

10 July, Friday

Time Temperature Precipitation Wind Pressure Humidity
00:00 +10°C° 0 mm 2 mps 744 mmHg 83%
01:00 +10°C° 0 mm 2 mps 744 mmHg 85%
02:00 +9°C° 0 mm 2 mps 745 mmHg 87%
03:00 +10°C° 0 mm 2 mps 745 mmHg 87%
04:00 +10°C° 0 mm 2 mps 745 mmHg 86%
05:00 +12°C° 0 mm 2 mps 746 mmHg 86%
06:00 +13°C° 0 mm 3 mps 746 mmHg 76%
07:00 +16°C° 0 mm 3 mps 746 mmHg 66%
08:00 +17°C° 0 mm 4 mps 747 mmHg 56%
09:00 +18°C° 0 mm 4 mps 747 mmHg 52%
10:00 +19°C° 0 mm 4 mps 747 mmHg 48%
11:00 +20°C° 0 mm 4 mps 747 mmHg 44%
12:00 +21°C° 0 mm 4 mps 747 mmHg 43%
13:00 +21°C° 0 mm 4 mps 747 mmHg 42%
14:00 +22°C° 0 mm 4 mps 747 mmHg 41%
15:00 +21°C° 0 mm 4 mps 747 mmHg 43%
16:00 +21°C° 0 mm 3 mps 748 mmHg 46%
17:00 +21°C° 0 mm 3 mps 748 mmHg 48%
18:00 +19°C° 0 mm 2 mps 748 mmHg 57%
19:00 +17°C° 0 mm 2 mps 748 mmHg 65%
20:00 +15°C° 0 mm 1 mps 748 mmHg 73%
21:00 +14°C° 0 mm 1 mps 749 mmHg 77%
22:00 +13°C° 0 mm 1 mps 749 mmHg 80%
23:00 +13°C° 0 mm 1 mps 750 mmHg 83%

11 July, Saturday

Time Temperature Precipitation Wind Pressure Humidity
00:00 +12°C° 0 mm 1 mps 750 mmHg 86%
01:00 +12°C° 0 mm 1 mps 750 mmHg 89%
02:00 +11°C° 0 mm 1 mps 750 mmHg 92%
03:00 +12°C° 0 mm 2 mps 750 mmHg 89%
04:00 +12°C° 0 mm 2 mps 750 mmHg 86%
05:00 +13°C° 0 mm 2 mps 751 mmHg 84%
06:00 +15°C° 0 mm 2 mps 750 mmHg 78%
07:00 +17°C° 0 mm 2 mps 750 mmHg 72%
08:00 +19°C° 0 mm 3 mps 750 mmHg 66%
09:00 +21°C° 0 mm 3 mps 750 mmHg 62%
10:00 +22°C° 0 mm 4 mps 750 mmHg 58%
11:00 +23°C° 0 mm 4 mps 750 mmHg 54%
12:00 +25°C° 0 mm 5 mps 750 mmHg 54%
13:00 +25°C° 0 mm 5 mps 750 mmHg 54%
14:00 +26°C° 0 mm 5 mps 749 mmHg 53%
15:00 +25°C° 0 mm 5 mps 749 mmHg 56%
16:00 +25°C° 0 mm 5 mps 749 mmHg 58%
17:00 +25°C° 0 mm 4 mps 749 mmHg 61%
18:00 +22°C° 0 mm 4 mps 749 mmHg 67%
19:00 +21°C° 0 mm 3 mps 749 mmHg 73%
20:00 +19°C° 0 mm 3 mps 748 mmHg 79%
21:00 +18°C° 0 mm 3 mps 748 mmHg 82%
22:00 +18°C° 0 mm 3 mps 748 mmHg 84%
23:00 +17°C° 0 mm 3 mps 748 mmHg 86%
Show more